Location: Bruneau Dunes Observatory
(42.9024°N, 115.6902°W)
Time: 06:43:17
(UTC-07:00)

Daily predictions for brighter satellites

Satellite Brightness Start Highest point End
(mag) Time Altitude Azimuth Time Altitude Azimuth Time Altitude Azimuth
MOS 1 4.4 18:37:59 10° SSE 18:43:31 60° ENE 18:49:07 10° N
Cosmos 1862 3.3 18:40:36 10° S 18:44:34 88° E 18:48:33 10° N
CZ-4 R/B 2.2 18:41:53 10° S 18:45:54 57° W 18:49:51 10° NNW
Cosmos 2084 Rocket 3.6 18:45:58 10° SSW 18:50:17 56° ESE 18:54:26 10° NE
Cosmos 2056 Rocket 3.6 18:45:19 10° NNW 18:50:44 68° ENE 18:56:09 10° SSE
Cosmos 1869 Rocket 4.2 18:46:35 10° SSW 18:50:51 61° W 18:55:09 10° N
SPOT 3 Rocket 3.7 18:46:52 10° SSE 18:51:54 54° ENE 18:57:00 10° N
Tiangong 2 1.1 18:51:07 10° W 18:54:18 80° S 18:57:29 10° ESE
DNEPR-1 R/B 3.8 18:50:45 10° S 18:54:45 45° ESE 18:58:52 10° NE
Cosmos 2219 Rocket 2.7 18:50:05 10° NNW 18:55:43 67° WSW 19:01:18 10° SSE
Cosmos 1452 Rocket 4.2 18:52:14 10° N 18:56:57 32° ENE 19:01:37 10° SE
Cosmos 2233 Rocket 4.0 18:51:58 10° N 18:58:16 72° E 19:04:29 10° SSE
Cosmos 44 Rocket 4.4 18:56:09 10° NNW 19:00:23 27° NE 19:04:41 10° ESE
FREGAT/IRIS 3.7 18:59:27 10° SE 19:01:54 23° ENE 19:04:21 10° NNE
USA 267 4.2 18:56:29 10° ENE 19:02:04 31° NNE 19:07:38 10° NW
Cosmos 405 3.5 19:00:45 10° SSE 19:03:59 36° E 19:07:14 10° NNE
CENTAUR R/B 3.4 19:00:27 10° SSE 19:05:18 27° ESE 19:10:39 10° NE
Cosmos 2219 4.0 19:00:03 10° SW 19:05:32 54° WNW 19:11:05 10° NNE
BREEZE-M DEB (TANK) 2.7 19:03:50 10° NW 19:06:06 27° NNE 19:07:52 14° ENE
NOAA 12 4.1 19:01:59 10° SSE 19:07:17 89° E 19:12:39 10° NNW
Cosmos 2227 Rocket 2.2 19:02:42 10° SSW 19:08:17 66° ESE 19:13:54 10° NNE
Cosmos 2237 Rocket 2.2 19:02:50 10° NNW 19:08:30 81° ENE 19:14:08 10° SSE
H-2A R/B 2.9 19:05:44 10° SSE 19:09:33 52° ENE 19:13:22 10° N
MOS 1-B Rocket 4.2 19:03:32 10° SSE 19:10:05 83° WSW 19:15:54 10° NNW
Cosmos 1378 Rocket 4.5 19:06:37 10° NNE 19:10:23 27° ENE 19:14:09 10° SE
SL-16 R/B 2.7 19:05:34 10° N 19:10:48 37° ENE 19:16:01 10° SE
Cosmos 1464 Rocket 4.3 19:07:30 10° N 19:13:14 40° ENE 19:18:57 10° SE
Iridium 4 Rocket 3.9 19:13:12 10° NNE 19:17:43 33° E 19:21:53 10° SE
FENGYUN 3A 4.2 19:12:33 10° S 19:17:53 64° WSW 19:23:17 10° NNW
Cosmos 158 Rocket 4.5 19:14:48 10° SSE 19:19:09 33° ESE 19:23:30 10° NE
Cosmos 1420 Rocket 4.5 19:14:38 10° N 19:19:36 40° ENE 19:24:33 10° SE
COSMO-SKYMED 1 3.6 19:16:30 10° N 19:20:43 50° WNW 19:24:55 10° SSW
Cosmos 2297 Rocket 2.1 19:16:56 10° SSW 19:22:33 74° ESE 19:28:14 10° NNE
CZ-2D R/B 4.2 19:19:18 10° SE 19:22:37 28° ENE 19:25:58 10° N
Meteor 1-18 Rocket 4.4 19:21:54 10° N 19:27:19 47° ENE 19:32:39 10° SSE
Cosmos 1812 2.6 19:24:09 10° N 19:28:01 65° E 19:31:51 10° SSE
Lacrosse 5 2.5 19:23:25 10° NW 19:28:23 58° SW 19:33:20 10° SSE
Cosmos 2285 Rocket 4.4 19:24:17 10° SSW 19:30:34 67° WNW 19:36:57 10° NNE
NOSS 3-2 (A) 3.8 19:25:26 10° SW 19:31:20 68° NW 19:37:57 10° NNE
ALOS 3.8 19:27:13 10° SSW 19:31:35 40° W 19:36:00 10° NNW
ATLAS 3B R/B 3.7 19:24:57 10° WSW 19:31:51 47° NW 19:38:32 10° NNE
ERS-2 2.0 19:32:34 10° SSE 19:36:16 84° ENE 19:39:58 10° NNW
Cosmos 44 3.4 19:35:12 10° NNW 19:40:10 64° NE 19:44:21 16° SE
Cosmos 2333 Rocket 4.1 19:36:47 10° NW 19:41:46 32° WSW 19:46:42 10° SSW
Cosmos 1939 Rocket 4.3 19:44:47 22° NE 19:44:47 22° NE 19:47:14 10° NNE
Thor Agena Rocket 3.7 19:39:27 10° NNE 19:44:24 48° E 19:49:16 10° S
Meteor 1-25 Rocket 4.1 19:39:10 10° S 19:44:39 69° E 19:50:11 10° NNE
Cosmos 1437 Rocket 4.0 19:43:21 10° SSE 19:45:36 25° SE 19:45:36 25° SE
Cosmos 1633 2.3 19:43:38 10° S 19:47:10 74° E 19:50:44 10° NNE
Cosmos 2034 Rocket 4.1 19:41:08 10° N 19:47:23 55° ENE 19:53:36 10° SSE
Cosmos 1674 Rocket 3.8 19:44:12 10° NNW 19:48:33 69° W 19:52:50 10° S
Cosmos 2082 3.8 19:43:39 10° SSW 19:49:16 76° WNW 19:54:56 10° NNE
Cosmos 1891 Rocket 4.4 19:44:51 10° N 19:51:06 69° E 19:57:11 10° SSE
USA 32 4.0 19:48:20 10° SSE 19:53:26 59° E 19:58:35 10° NNE
Envisat 3.0 19:49:16 10° SSE 19:54:14 59° ENE 19:59:15 10° N
SL-8 R/B 3.7 19:50:11 10° SW 19:54:53 64° SSE 19:56:36 38° E
Cosmos 1908 Rocket 3.5 19:51:22 10° S 19:55:49 80° E 20:00:18 10° N
HJ-1C 3.5 19:53:23 10° S 19:56:48 79° WSW 20:00:14 10° NNW
Cosmos 1269 Rocket 4.4 19:52:40 10° S 19:57:33 40° ESE 19:59:30 29° ENE
CZ-4C R/B 4.0 19:54:44 10° NNW 20:00:09 24° NNE 20:02:08 21° NE
SeaSat 1 2.4 19:58:01 13° SSE 20:02:28 89° NE 20:07:26 10° NNW
Resurs 1-3 3.9 20:04:01 43° ENE 20:04:01 43° ENE 20:08:03 10° N
ARGOS Delta rocket 3.7 19:59:05 10° NNE 20:04:01 66° E 20:08:38 10° S
Cosmos 921 Rocket 3.0 20:05:25 10° N 20:09:55 62° ENE 20:10:36 55° ESE
Resurs 01 Rocket 1.7 20:10:56 51° ENE 20:10:56 51° ENE 20:15:04 10° N
USA 215 3.2 20:06:09 20° NE 20:10:55 89° NNW 20:17:28 10° SW
USA 186 4.0 20:16:27 18° N 20:16:27 18° N 20:17:25 10° N
SJ-6B 3.7 20:17:23 10° S 20:21:00 46° W 20:24:43 10° NNW
Cosmos 1975 Rocket 2.9 20:17:45 10° N 20:22:12 79° E 20:22:26 76° ESE
NOSS 3-2 (C) 4.5 20:17:53 10° WSW 20:23:37 44° NW 20:30:01 10° NNE
Tiangong 2 3.3 20:28:05 10° W 20:29:54 24° WSW 20:29:54 24° WSW
BREEZE-M R/B 3.9 20:30:44 10° WNW 20:33:36 71° SSW 20:34:27 57° SSE
Okean 1 4.1 20:30:18 10° NNW 20:34:10 49° W 20:35:33 33° SSW
Cosmos 1943 4.3 20:33:37 10° N 20:37:14 30° NNE 20:37:14 30° NNE
Tsikada Rocket 4.0 20:33:29 10° S 20:39:54 85° W 20:46:22 10° N
Cosmos 44 Rocket 4.1 20:37:17 10° NW 20:42:10 51° WSW 20:43:34 39° SSW
Meteor 1-13 Rocket 4.0 20:38:36 10° N 20:44:06 83° ENE 20:44:06 83° ENE
USA 267 3.2 20:43:26 60° ENE 20:44:23 67° NE 20:50:52 10° NW
Spot 2 Rocket 3.4 20:44:51 77° NNW 20:44:51 77° NNW 20:49:33 10° NNW
Geosat 4.2 20:45:33 48° N 20:46:54 70° WNW 20:51:53 10° SW
Cosmos 2227 Rocket 4.5 20:48:34 10° W 20:52:51 22° NW 20:57:08 10° N
SL-16 R/B 3.7 20:49:48 10° NW 20:54:51 34° WSW 20:59:33 11° SSW
CENTAUR R/B 3.0 20:49:21 10° SW 20:55:21 59° NW 20:59:08 27° NNE
Cosmos 1603 4.2 21:07:39 10° NNW 21:12:06 54° NW 21:12:06 54° NW
Resurs 01 Rocket 4.5 21:48:30 14° WNW 21:48:30 14° WNW 21:50:08 10° NW
CZ-4C R/B 3.6 21:42:41 10° NNW 21:47:21 45° NNW 21:47:21 45° NNW
USA 215 4.3 21:53:31 37° NNW 21:53:31 37° NNW 21:59:21 10° W
